UAL1291 KLAS-KDEN

Flight info

Callsign UAL1291
Flight time 1h 27m
Altitude 35000
Route GIDGT3 TUKRR BUMMP SSKII4
Aircraft B738/M-SDE2E3FGHIRWXY/LB1

Departure

Time 2026-05-06 04:59
Airport Harry Reid International Airport (KLAS)

Arrival

Time 2026-05-06 06:26
Airport Denver International Airport (KDEN)
Time Latitude Longitude Altitude Speed Heading
2026-05-06 04:39 36.08315 -115.14005 2092 ft 0 kts 133°
2026-05-06 04:48 36.08319 -115.14010 2092 ft 2 kts 133°
2026-05-06 04:48 36.08332 -115.14027 2091 ft 3 kts 137°
2026-05-06 04:48 36.08348 -115.14043 2091 ft 3 kts 143°
2026-05-06 04:48 36.08364 -115.14057 2091 ft 3 kts 152°
2026-05-06 04:49 36.08382 -115.14067 2091 ft 3 kts 173°
2026-05-06 04:49 36.08398 -115.14066 2091 ft 2 kts 218°
2026-05-06 04:49 36.08401 -115.14063 2091 ft 1 kts 225°
2026-05-06 04:51 36.08384 -115.14084 2091 ft 8 kts 225°
2026-05-06 04:51 36.08326 -115.14148 2092 ft 13 kts 206°
2026-05-06 04:51 36.08261 -115.14188 2094 ft 9 kts 216°
2026-05-06 04:52 36.08212 -115.14237 2094 ft 9 kts 200°
2026-05-06 04:52 36.08151 -115.14240 2094 ft 9 kts 183°
2026-05-06 04:52 36.08090 -115.14241 2094 ft 9 kts 181°
2026-05-06 04:52 36.08036 -115.14242 2094 ft 5 kts 181°
2026-05-06 04:53 36.08018 -115.14242 2094 ft 0 kts 179°
2026-05-06 04:53 36.07999 -115.14242 2094 ft 5 kts 180°
2026-05-06 04:53 36.07951 -115.14242 2094 ft 9 kts 180°
2026-05-06 04:54 36.07877 -115.14242 2094 ft 12 kts 179°
2026-05-06 04:54 36.07828 -115.14164 2093 ft 14 kts 91°
2026-05-06 04:54 36.07827 -115.14034 2092 ft 16 kts 90°
2026-05-06 04:54 36.07827 -115.13898 2092 ft 15 kts 90°
2026-05-06 04:55 36.07828 -115.13769 2092 ft 15 kts 89°
2026-05-06 04:55 36.07828 -115.13635 2091 ft 16 kts 90°
2026-05-06 04:55 36.07827 -115.13491 2090 ft 18 kts 90°
2026-05-06 04:55 36.07828 -115.13332 2088 ft 19 kts 90°
2026-05-06 04:56 36.07828 -115.13160 2083 ft 20 kts 89°
2026-05-06 04:56 36.07828 -115.12987 2072 ft 20 kts 90°
2026-05-06 04:56 36.07828 -115.12821 2069 ft 19 kts 90°
2026-05-06 04:56 36.07828 -115.12659 2063 ft 18 kts 90°
2026-05-06 04:57 36.07829 -115.12503 2058 ft 18 kts 90°
2026-05-06 04:57 36.07829 -115.12354 2055 ft 17 kts 89°
2026-05-06 04:57 36.07795 -115.12218 2050 ft 17 kts 128°
2026-05-06 04:57 36.07745 -115.12144 2048 ft 7 kts 139°
2026-05-06 04:58 36.07695 -115.12126 2048 ft 11 kts 175°
2026-05-06 04:58 36.07644 -115.12218 2049 ft 19 kts 269°
2026-05-06 04:58 36.07643 -115.12610 2062 ft 80 kts 270°
2026-05-06 04:58 36.07641 -115.13578 2090 ft 143 kts 270°
2026-05-06 04:59 36.07643 -115.14994 2358 ft 178 kts 270°
2026-05-06 04:59 36.07656 -115.16539 3150 ft 186 kts 268°
2026-05-06 04:59 36.07680 -115.18114 4135 ft 183 kts 268°
2026-05-06 04:59 36.07668 -115.19760 4567 ft 200 kts 268°
2026-05-06 05:00 36.07656 -115.21567 4858 ft 217 kts 268°
2026-05-06 05:00 36.07649 -115.23413 5456 ft 218 kts 269°
2026-05-06 05:00 36.07645 -115.25322 5963 ft 224 kts 270°
2026-05-06 05:00 36.07999 -115.27220 6390 ft 234 kts 302°
2026-05-06 05:01 36.09216 -115.28579 6760 ft 247 kts 336°
2026-05-06 05:01 36.10896 -115.29155 7250 ft 252 kts 347°
2026-05-06 05:01 36.12591 -115.29614 8021 ft 249 kts 348°
2026-05-06 05:01 36.14307 -115.29655 8657 ft 254 kts 15°
2026-05-06 05:02 36.15864 -115.28616 9340 ft 264 kts 41°
2026-05-06 05:02 36.16983 -115.26724 9800 ft 281 kts 58°
2026-05-06 05:02 36.17863 -115.24529 10385 ft 292 kts 65°
2026-05-06 05:02 36.18625 -115.22083 10582 ft 316 kts 67°
2026-05-06 05:03 36.19409 -115.19437 10763 ft 340 kts 70°
2026-05-06 05:03 36.19745 -115.16444 10913 ft 365 kts 88°
2026-05-06 05:03 36.19722 -115.14325 11023 ft 378 kts 88°
2026-05-06 05:03 36.19685 -115.10999 11321 ft 392 kts 88°
2026-05-06 05:04 36.19656 -115.07603 11888 ft 396 kts 88°
2026-05-06 05:04 36.19632 -115.03093 12848 ft 396 kts 88°
2026-05-06 05:04 36.19624 -114.99667 13499 ft 400 kts 88°
2026-05-06 05:04 36.19620 -114.96213 14072 ft 403 kts 88°
2026-05-06 05:05 36.19618 -114.93915 14448 ft 405 kts 88°
2026-05-06 05:05 36.19615 -114.90419 15001 ft 407 kts 88°
2026-05-06 05:05 36.19612 -114.86900 15606 ft 408 kts 88°
2026-05-06 05:05 36.19607 -114.83389 16264 ft 408 kts 88°
2026-05-06 05:06 36.19601 -114.79862 16765 ft 412 kts 88°
2026-05-06 05:06 36.19593 -114.75140 17400 ft 417 kts 88°
2026-05-06 05:06 36.19584 -114.71537 17909 ft 420 kts 88°
2026-05-06 05:06 36.19575 -114.67919 18400 ft 422 kts 88°
2026-05-06 05:07 36.19566 -114.64277 18864 ft 424 kts 88°
2026-05-06 05:07 36.19561 -114.61862 19175 ft 424 kts 88°
2026-05-06 05:07 36.19552 -114.58195 19614 ft 427 kts 88°
2026-05-06 05:07 36.19543 -114.54518 20050 ft 429 kts 87°
2026-05-06 05:08 36.19533 -114.50825 20512 ft 430 kts 87°
2026-05-06 05:08 36.19521 -114.47115 20946 ft 432 kts 87°
2026-05-06 05:08 36.19509 -114.43392 21386 ft 433 kts 87°
2026-05-06 05:08 36.19494 -114.39654 21804 ft 435 kts 87°
2026-05-06 05:09 36.19477 -114.35910 22243 ft 436 kts 87°
2026-05-06 05:09 36.19460 -114.32154 22667 ft 437 kts 86°
2026-05-06 05:09 36.19443 -114.28385 23050 ft 438 kts 86°
2026-05-06 05:09 36.19425 -114.24605 23415 ft 440 kts 86°
2026-05-06 05:10 36.19598 -114.20825 23732 ft 440 kts 80°
2026-05-06 05:10 36.20013 -114.17075 24054 ft 439 kts 78°
2026-05-06 05:10 36.20508 -114.13401 24405 ft 439 kts 77°
2026-05-06 05:10 36.21029 -114.09671 24690 ft 441 kts 77°
2026-05-06 05:11 36.21535 -114.05915 24947 ft 443 kts 77°
2026-05-06 05:11 36.22021 -114.02135 25239 ft 445 kts 78°
2026-05-06 05:11 36.22488 -113.98348 25542 ft 446 kts 78°
2026-05-06 05:11 36.22944 -113.94548 25794 ft 447 kts 78°
2026-05-06 05:12 36.23393 -113.90735 26046 ft 447 kts 78°
2026-05-06 05:12 36.23838 -113.86931 26337 ft 446 kts 78°
2026-05-06 05:12 36.24280 -113.83134 26661 ft 444 kts 78°
2026-05-06 05:12 36.24712 -113.79400 27471 ft 431 kts 78°
2026-05-06 05:13 36.25123 -113.75833 28455 ft 417 kts 77°
2026-05-06 05:13 36.25526 -113.72335 29518 ft 402 kts 77°
2026-05-06 05:13 36.25910 -113.68983 30563 ft 385 kts 77°
2026-05-06 05:13 36.26282 -113.65751 31348 ft 375 kts 77°
2026-05-06 05:14 36.26655 -113.62547 31615 ft 378 kts 77°
2026-05-06 05:14 36.27035 -113.59303 31760 ft 383 kts 77°
2026-05-06 05:14 36.27416 -113.56018 31989 ft 386 kts 77°
2026-05-06 05:14 36.27795 -113.52725 32278 ft 387 kts 77°
2026-05-06 05:15 36.28173 -113.49417 32518 ft 389 kts 77°
2026-05-06 05:15 36.28548 -113.46127 32728 ft 391 kts 77°
2026-05-06 05:15 36.28928 -113.42782 32974 ft 393 kts 77°
2026-05-06 05:15 36.29311 -113.39405 33093 ft 398 kts 77°
2026-05-06 05:16 36.29695 -113.35988 33321 ft 401 kts 77°
2026-05-06 05:16 36.30078 -113.32574 33637 ft 401 kts 78°
2026-05-06 05:16 36.30468 -113.29127 33740 ft 406 kts 78°
2026-05-06 05:17 36.31331 -113.22132 33883 ft 412 kts 71°
2026-05-06 05:17 36.32370 -113.18840 34051 ft 410 kts 63°
2026-05-06 05:17 36.33542 -113.15621 34307 ft 409 kts 63°
2026-05-06 05:17 36.34695 -113.12450 34511 ft 410 kts 63°
2026-05-06 05:18 36.35865 -113.09210 34583 ft 414 kts 63°
2026-05-06 05:18 36.38221 -113.02598 34729 ft 422 kts 64°
2026-05-06 05:18 36.39402 -112.99249 34855 ft 424 kts 64°
2026-05-06 05:19 36.40585 -112.95882 34887 ft 428 kts 64°
2026-05-06 05:19 36.41942 -112.92011 34901 ft 432 kts 64°
2026-05-06 05:20 36.42974 -112.89063 34910 ft 436 kts 64°
2026-05-06 05:20 36.45398 -112.82123 34912 ft 441 kts 64°
2026-05-06 05:21 36.47850 -112.75089 34898 ft 445 kts 64°
2026-05-06 05:21 36.50308 -112.68022 34905 ft 446 kts 65°
2026-05-06 05:22 36.52766 -112.60939 34909 ft 446 kts 65°
2026-05-06 05:22 36.55207 -112.53890 34896 ft 447 kts 65°
2026-05-06 05:23 36.57659 -112.46793 34906 ft 446 kts 65°
2026-05-06 05:23 36.61328 -112.36145 34907 ft 446 kts 65°
2026-05-06 05:24 36.63752 -112.29088 34906 ft 446 kts 65°
2026-05-06 05:24 36.66188 -112.21976 34906 ft 446 kts 65°
2026-05-06 05:25 36.68620 -112.14861 34882 ft 446 kts 65°
2026-05-06 05:25 36.71051 -112.07734 34884 ft 448 kts 65°
2026-05-06 05:26 36.73474 -112.00614 34854 ft 450 kts 65°
2026-05-06 05:26 36.75918 -111.93412 34860 ft 451 kts 65°
2026-05-06 05:27 36.78363 -111.86190 34820 ft 452 kts 65°
2026-05-06 05:27 36.80807 -111.78952 34799 ft 453 kts 66°
2026-05-06 05:28 36.83245 -111.71718 34803 ft 457 kts 66°
2026-05-06 05:28 36.85750 -111.64408 34786 ft 459 kts 62°
2026-05-06 05:29 36.88888 -111.57496 34793 ft 457 kts 57°
2026-05-06 05:29 36.90570 -111.54128 34918 ft 456 kts 56°
2026-05-06 05:29 36.92250 -111.50775 34917 ft 455 kts 56°
2026-05-06 05:30 36.95533 -111.44091 34920 ft 453 kts 57°
2026-05-06 05:30 36.98768 -111.37338 34920 ft 452 kts 58°
2026-05-06 05:31 37.01970 -111.30580 34891 ft 451 kts 58°
2026-05-06 05:31 37.05161 -111.23820 34846 ft 451 kts 58°
2026-05-06 05:32 37.08324 -111.17110 34818 ft 450 kts 58°
2026-05-06 05:32 37.11508 -111.10346 34764 ft 452 kts 58°
2026-05-06 05:33 37.14701 -111.03552 34747 ft 454 kts 58°
2026-05-06 05:33 37.17901 -110.96726 34751 ft 455 kts 58°
2026-05-06 05:34 37.21088 -110.89915 34745 ft 456 kts 58°
2026-05-06 05:34 37.24296 -110.83045 34727 ft 456 kts 58°
2026-05-06 05:35 37.27498 -110.76172 34733 ft 456 kts 58°
2026-05-06 05:35 37.30690 -110.69306 34725 ft 455 kts 58°
2026-05-06 05:36 37.33856 -110.62484 34726 ft 454 kts 58°
2026-05-06 05:36 37.37034 -110.55621 34730 ft 454 kts 58°
2026-05-06 05:37 37.40203 -110.48761 34726 ft 454 kts 58°
2026-05-06 05:37 37.43375 -110.41882 34729 ft 455 kts 58°
2026-05-06 05:38 37.46550 -110.34983 34733 ft 456 kts 58°
2026-05-06 05:38 37.49710 -110.28100 34745 ft 457 kts 58°
2026-05-06 05:39 37.52891 -110.21156 34746 ft 458 kts 58°
2026-05-06 05:39 37.56075 -110.14193 34752 ft 459 kts 58°
2026-05-06 05:40 37.59261 -110.07209 34757 ft 460 kts 58°
2026-05-06 05:40 37.62430 -110.00249 34765 ft 461 kts 58°
2026-05-06 05:41 37.65624 -109.93216 34777 ft 462 kts 58°
2026-05-06 05:41 37.68816 -109.86175 34775 ft 462 kts 58°
2026-05-06 05:42 37.72006 -109.79123 34790 ft 463 kts 59°
2026-05-06 05:42 37.75181 -109.72086 34787 ft 464 kts 59°
2026-05-06 05:43 37.78378 -109.64987 34866 ft 465 kts 59°
2026-05-06 05:43 37.81575 -109.57874 34858 ft 466 kts 59°
2026-05-06 05:44 37.84773 -109.50740 34839 ft 466 kts 59°
2026-05-06 05:44 37.87947 -109.43645 34825 ft 467 kts 59°
2026-05-06 05:45 37.91147 -109.36475 34797 ft 468 kts 59°
2026-05-06 05:45 37.94351 -109.29282 34782 ft 469 kts 59°
2026-05-06 05:46 37.97552 -109.22077 34774 ft 470 kts 59°
2026-05-06 05:46 38.00733 -109.14904 34778 ft 470 kts 59°
2026-05-06 05:47 38.03934 -109.07665 34775 ft 472 kts 59°
2026-05-06 05:47 38.07146 -109.00387 34777 ft 473 kts 59°
2026-05-06 05:48 38.10356 -108.93095 34775 ft 474 kts 60°
2026-05-06 05:48 38.13348 -108.85695 34763 ft 475 kts 63°
2026-05-06 05:49 38.16246 -108.78156 34766 ft 475 kts 63°
2026-05-06 05:49 38.19164 -108.70614 34777 ft 476 kts 62°
2026-05-06 05:50 38.22109 -108.63068 34768 ft 477 kts 62°
2026-05-06 05:50 38.25062 -108.55506 34785 ft 478 kts 62°
2026-05-06 05:51 38.27995 -108.47976 34777 ft 478 kts 62°
2026-05-06 05:51 38.30940 -108.40394 34793 ft 478 kts 62°
2026-05-06 05:52 38.33889 -108.32781 34789 ft 479 kts 62°
2026-05-06 05:52 38.36837 -108.25152 34793 ft 481 kts 63°
2026-05-06 05:53 38.39774 -108.17532 34862 ft 483 kts 63°
2026-05-06 05:53 38.42731 -108.09839 34888 ft 484 kts 63°
2026-05-06 05:54 38.45687 -108.02133 34919 ft 484 kts 63°
2026-05-06 05:54 38.48628 -107.94399 34940 ft 484 kts 63°
2026-05-06 05:55 38.51530 -107.86704 34934 ft 485 kts 63°
2026-05-06 05:55 38.54451 -107.78944 34789 ft 485 kts 63°
2026-05-06 05:56 38.57369 -107.71179 34790 ft 485 kts 63°
2026-05-06 05:56 38.60287 -107.63395 34788 ft 486 kts 63°
2026-05-06 05:57 38.63184 -107.55646 34790 ft 486 kts 63°
2026-05-06 05:57 38.66098 -107.47839 34788 ft 487 kts 63°
2026-05-06 05:58 38.69049 -107.40038 34788 ft 487 kts 63°
2026-05-06 05:58 38.72015 -107.32224 34793 ft 489 kts 63°
2026-05-06 05:59 38.74962 -107.24427 34802 ft 491 kts 63°
2026-05-06 05:59 38.77934 -107.16529 34783 ft 492 kts 63°
2026-05-06 06:00 38.80901 -107.08618 34788 ft 493 kts 63°
2026-05-06 06:00 38.83871 -107.00680 34786 ft 495 kts 63°
2026-05-06 06:01 38.86827 -106.92759 34791 ft 496 kts 63°
2026-05-06 06:01 38.88317 -106.88758 34515 ft 498 kts 63°
2026-05-06 06:01 38.89794 -106.84783 34082 ft 491 kts 63°
2026-05-06 06:02 38.91271 -106.80808 33259 ft 493 kts 63°
2026-05-06 06:02 38.92740 -106.76846 32696 ft 488 kts 63°
2026-05-06 06:02 38.94201 -106.72902 31725 ft 491 kts 62°
2026-05-06 06:02 38.95666 -106.68944 31077 ft 489 kts 62°
2026-05-06 06:03 38.97109 -106.65034 30795 ft 478 kts 62°
2026-05-06 06:03 38.98497 -106.61271 30578 ft 468 kts 61°
2026-05-06 06:03 38.99874 -106.57534 30339 ft 459 kts 61°
2026-05-06 06:03 39.01224 -106.53856 30116 ft 451 kts 61°
2026-05-06 06:04 39.02546 -106.50243 29874 ft 441 kts 61°
2026-05-06 06:04 39.03840 -106.46699 29529 ft 436 kts 61°
2026-05-06 06:04 39.05124 -106.43184 29127 ft 431 kts 61°
2026-05-06 06:04 39.06398 -106.39705 28715 ft 428 kts 61°
2026-05-06 06:05 39.07657 -106.36251 28269 ft 425 kts 61°
2026-05-06 06:05 39.08890 -106.32863 27862 ft 423 kts 62°
2026-05-06 06:05 39.10134 -106.29440 27441 ft 421 kts 61°
2026-05-06 06:05 39.11374 -106.26024 26992 ft 420 kts 61°
2026-05-06 06:06 39.12620 -106.22598 26550 ft 426 kts 62°
2026-05-06 06:06 39.13895 -106.19090 26088 ft 437 kts 62°
2026-05-06 06:06 39.15178 -106.15546 25590 ft 436 kts 62°
2026-05-06 06:06 39.16455 -106.12003 24998 ft 436 kts 62°
2026-05-06 06:07 39.17726 -106.08464 24511 ft 434 kts 63°
2026-05-06 06:07 39.18973 -106.04990 24054 ft 432 kts 63°
2026-05-06 06:07 39.20231 -106.01483 23573 ft 430 kts 63°
2026-05-06 06:07 39.21483 -105.97990 23048 ft 428 kts 63°
2026-05-06 06:08 39.22725 -105.94522 22556 ft 425 kts 63°
2026-05-06 06:08 39.23959 -105.91071 22078 ft 422 kts 63°
2026-05-06 06:08 39.25189 -105.87650 21620 ft 419 kts 63°
2026-05-06 06:08 39.26413 -105.84257 21186 ft 415 kts 63°
2026-05-06 06:09 39.27625 -105.80895 20757 ft 412 kts 63°
2026-05-06 06:09 39.28757 -105.77753 20406 ft 409 kts 63°
2026-05-06 06:09 39.29924 -105.74507 19988 ft 406 kts 63°
2026-05-06 06:09 39.31078 -105.71289 19668 ft 401 kts 62°
2026-05-06 06:10 39.32234 -105.68061 19508 ft 391 kts 62°
2026-05-06 06:10 39.33378 -105.64891 19156 ft 388 kts 62°
2026-05-06 06:10 39.34413 -105.62057 18886 ft 387 kts 62°
2026-05-06 06:10 39.35563 -105.58919 18481 ft 387 kts 62°
2026-05-06 06:11 39.36711 -105.55783 18056 ft 385 kts 62°
2026-05-06 06:11 39.37848 -105.52665 17629 ft 383 kts 62°
2026-05-06 06:11 39.38967 -105.49600 17341 ft 379 kts 62°
2026-05-06 06:11 39.40072 -105.46555 17157 ft 370 kts 62°
2026-05-06 06:12 39.41148 -105.43571 16992 ft 362 kts 64°
2026-05-06 06:12 39.41766 -105.40449 16724 ft 360 kts 87°
2026-05-06 06:12 39.41795 -105.37241 16502 ft 354 kts 90°
2026-05-06 06:12 39.41788 -105.34077 16266 ft 350 kts 90°
2026-05-06 06:13 39.41781 -105.30948 16010 ft 346 kts 90°
2026-05-06 06:13 39.41780 -105.27846 15744 ft 343 kts 90°
2026-05-06 06:13 39.41785 -105.24814 15498 ft 340 kts 90°
2026-05-06 06:13 39.41795 -105.21780 15257 ft 336 kts 90°
2026-05-06 06:14 39.41807 -105.18775 15026 ft 333 kts 90°
2026-05-06 06:14 39.41820 -105.15789 14777 ft 330 kts 90°
2026-05-06 06:14 39.41832 -105.12835 14550 ft 327 kts 90°
2026-05-06 06:14 39.41843 -105.09910 14303 ft 325 kts 90°
2026-05-06 06:15 39.41855 -105.06998 14070 ft 322 kts 90°
2026-05-06 06:15 39.41866 -105.04120 13814 ft 319 kts 90°
2026-05-06 06:15 39.41876 -105.01271 13562 ft 315 kts 90°
2026-05-06 06:15 39.41884 -104.98491 13299 ft 312 kts 90°
2026-05-06 06:16 39.41892 -104.95712 13060 ft 308 kts 90°
2026-05-06 06:16 39.41962 -104.92955 12778 ft 306 kts 84°
2026-05-06 06:16 39.42203 -104.90236 12481 ft 304 kts 83°
2026-05-06 06:16 39.42468 -104.87531 12192 ft 302 kts 83°
2026-05-06 06:17 39.42727 -104.84840 11897 ft 301 kts 83°
2026-05-06 06:17 39.42976 -104.82159 11606 ft 299 kts 84°
2026-05-06 06:17 39.43214 -104.79490 11317 ft 298 kts 84°
2026-05-06 06:17 39.43452 -104.76841 11056 ft 295 kts 83°
2026-05-06 06:18 39.43982 -104.74331 10997 ft 285 kts 68°
2026-05-06 06:18 39.44734 -104.72053 10978 ft 274 kts 67°
2026-05-06 06:18 39.45652 -104.69972 10955 ft 262 kts 45°
2026-05-06 06:18 39.47055 -104.68680 10991 ft 251 kts 24°
2026-05-06 06:19 39.48693 -104.67978 10998 ft 244 kts 13°
2026-05-06 06:19 39.50302 -104.67452 10998 ft 232 kts 13°
2026-05-06 06:19 39.51809 -104.66950 10976 ft 217 kts 13°
2026-05-06 06:19 39.53233 -104.66533 10966 ft 204 kts
2026-05-06 06:20 39.54694 -104.66406 10774 ft 228 kts
2026-05-06 06:20 39.56318 -104.66369 10445 ft 238 kts
2026-05-06 06:20 39.57977 -104.66350 10127 ft 238 kts
2026-05-06 06:20 39.59549 -104.66334 9793 ft 229 kts
2026-05-06 06:21 39.61078 -104.66317 9512 ft 218 kts
2026-05-06 06:21 39.62577 -104.66300 9214 ft 212 kts
2026-05-06 06:21 39.64064 -104.66281 8967 ft 213 kts
2026-05-06 06:21 39.65531 -104.66263 8677 ft 209 kts
2026-05-06 06:22 39.66962 -104.66246 8413 ft 207 kts
2026-05-06 06:22 39.68383 -104.66229 8163 ft 200 kts
2026-05-06 06:22 39.69732 -104.66214 7902 ft 187 kts
2026-05-06 06:22 39.70980 -104.66200 7659 ft 173 kts
2026-05-06 06:23 39.72161 -104.66185 7443 ft 167 kts
2026-05-06 06:23 39.73321 -104.66170 7242 ft 168 kts
2026-05-06 06:23 39.74489 -104.66155 7075 ft 169 kts
2026-05-06 06:23 39.75673 -104.66141 6980 ft 173 kts
2026-05-06 06:24 39.76870 -104.66127 6784 ft 170 kts
2026-05-06 06:24 39.78026 -104.66113 6551 ft 166 kts
2026-05-06 06:24 39.79160 -104.66099 6271 ft 160 kts
2026-05-06 06:24 39.80257 -104.66086 6033 ft 157 kts
2026-05-06 06:25 39.81360 -104.66073 5793 ft 160 kts 360°
2026-05-06 06:25 39.82438 -104.66060 5571 ft 159 kts 360°
2026-05-06 06:25 39.84445 -104.66037 5410 ft 110 kts
2026-05-06 06:26 39.85059 -104.66030 5398 ft 66 kts
2026-05-06 06:26 39.85504 -104.66024 5392 ft 60 kts
2026-05-06 06:26 39.85678 -104.66094 5393 ft 17 kts 279°
2026-05-06 06:26 39.85678 -104.66242 5390 ft 16 kts 271°
2026-05-06 06:27 39.85680 -104.66391 5384 ft 18 kts 270°
2026-05-06 06:27 39.85677 -104.66554 5378 ft 18 kts 250°
2026-05-06 06:27 39.85661 -104.66711 5380 ft 17 kts 271°
2026-05-06 06:27 39.85660 -104.66862 5380 ft 16 kts 272°
2026-05-06 06:28 39.85702 -104.66951 5377 ft 10 kts 355°
2026-05-06 06:28 39.85768 -104.66952 5377 ft 9 kts
2026-05-06 06:28 39.85802 -104.66952 5377 ft 2 kts
2026-05-06 06:28 39.85811 -104.66952 5377 ft 0 kts
2026-05-06 06:41 39.85810 -104.66952 5379 ft 0 kts